User: anonymous   Login
Location: Unspecified
(0.0000°N, 0.0000°E)
Time: 03:22:46
(UTC+02:00)
Language:

Cosmos 1536 - Orbit

View from above orbital plane
View from above orbital plane
View from above satellite
View from above satellite

Ground track
Ground track

The orbit data is extracted from the following two-line orbital elements,

1 14699U 84013A   14297.10184841  .00004348  00000-0  32353-3 0  2165
2 14699 082.5284 184.7129 0014898 108.2450 252.0398 15.02644459667707
Epoch (UTC): 24 October 2014 02:26:39
Eccentricity: 0.0014898
inclination: 82.5284°
perigee height: 548 km
apogee height: 569 km
right ascension of ascending node: 184.7129°
argument of perigee: 108.2450°
revolutions per day: 15.02644459
mean anomaly at epoch: 252.0398°
orbit number at epoch: 66770

The dashed part of the orbit path shows where the satellite is in the earth's shadow,  

DLR